| time (UTC) | temp F | wind direction | speed MPH | gust MPH | rain 1hr in | rain 24hr in | rain mn in | humidity % | barometer mb |
| 20260507102413 | 54 | 0 | 5.0 | 0.0 | 0.00 | 0.00 | 0.00 | 71 | |
| 20260507092213 | 52 | 0 | 5.0 | 0.0 | 0.00 | 0.00 | 0.00 | 76 | |
| 20260507082212 | 50 | 0 | 5.0 | 0.0 | 0.00 | 0.00 | 0.00 | 81 | |
| 20260507072214 | 50 | 250 | 9.0 | 0.0 | 0.00 | 0.00 | 0.00 | 87 | |
| 20260507062212 | 46 | 210 | 12.0 | 0.0 | 0.00 | 0.00 | 0.00 | 93 | |
| 20260507052212 | 45 | 200 | 12.0 | 0.0 | 0.00 | 0.00 | 0.00 | 99 | |
| 20260507042414 | 45 | 200 | 7.0 | 0.0 | 0.00 | 0.00 | 0.00 | 99 | |
| 20260507032213 | 45 | 180 | 18.0 | 0.0 | 0.00 | 0.00 | 0.00 | 99 | |
| 20260507022211 | 46 | 170 | 20.0 | 0.0 | 0.00 | 0.00 | 0.00 | 93 | |
| 20260507012312 | 46 | 190 | 26.0 | 38.0 | 0.00 | 0.00 | 0.00 | 93 | |
| 20260507002212 | 46 | 200 | 22.0 | 36.0 | 0.00 | 0.00 | 0.00 | 93 | |
| 20260506232214 | 48 | 190 | 31.0 | 49.0 | 0.00 | 0.00 | 0.00 | 87 | |
| 20260506222443 | 50 | 190 | 31.0 | 45.0 | 0.00 | 0.00 | 0.00 | 81 | |
| 20260506212227 | 50 | 190 | 31.0 | 49.0 | 0.00 | 0.00 | 0.00 | 81 | |
| 20260506202245 | 52 | 190 | 33.0 | 45.0 | 0.00 | 0.00 | 0.00 | 71 | |
| 20260506192421 | 52 | 190 | 26.0 | 0.0 | 0.00 | 0.00 | 0.00 | 71 | |
| 20260506182317 | 54 | 180 | 26.0 | 0.0 | 0.00 | 0.00 | 0.00 | 66 | |
| 20260506172242 | 54 | 180 | 22.0 | 33.0 | 0.00 | 0.00 | 0.00 | 71 | |
| 20260506162444 | 55 | 180 | 18.0 | 0.0 | 0.00 | 0.00 | 0.00 | 62 | |
| 20260506152300 | 55 | 190 | 12.0 | 22.0 | 0.00 | 0.00 | 0.00 | 66 | |
| 20260506142228 | 57 | 200 | 9.0 | 0.0 | 0.00 | 0.00 | 0.00 | 58 | |
| 20260506132228 | 57 | 210 | 9.0 | 0.0 | 0.00 | 0.00 | 0.00 | 58 | |
| 20260506122228 | 61 | 220 | 7.0 | 0.0 | 0.00 | 0.00 | 0.00 | 55 | |
| 20260506112214 | 63 | 230 | 7.0 | 0.0 | 0.00 | 0.00 | 0.00 | 55 |